Temperature
12 12 11 11 11 11 11 11 11 11 11 10 10 10 10 11 11 11 11 11 11 11 12 12 12 12 12 12 12 12 12 12 12 12 11 11 11 11 11 11 11 11 11
11 11 11 11 11 11 11 11 10 10 10 10 10 10 10 10 10 10 11 11 11 11 11 11 12 12 12 12 12 12 12 12 11 11 11 11 11 11 11 11 11 11 11
10 10 10 10 10 10 10 10 10 10 10 10 10 10 9 9 10 10 10 10 10 11 11 11 11 11 11 11 11 11 12 12 11 11 11 11 10 10 10 10 10 10 10
10 10 10 10 10 10 10 10 10 10 10 10 10 9 9 9 10 10 10 10 10 10 10 10 11 11 11 11 11 11 11 11 11 11 11 11 11 10 10 10 10 10 10
10 10 10 10 10 10 10 10 10 9 9 9 9 9 9 9 9 9 9 9 9 9 10 10 10 10 10 10 11 11 11 11 11 11 11 10 10 10 10 9 10 10 10
9 9 9 9 9 9 9 9 9 9 9 9 9 9 9 9 8 9 9 9 9 9 9 9 9 10 10 10 10 10 10 10 10 10 10 10 10 10 10 9 9 9 9
9 9 9 9 9 9 9 9 9 8 8 8 8 8 8 8 8 8 8 8 8 8 9 9 9 9 9 9 10 10 10 10 10 10 10 10 10 10 9 9 9 9 8
8 8 9 9 8 8 8 8 8 8 8 8 8 8 8 8 8 8 8 8 8 8 8 8 8 9 9 9 9 9 9 9 9 9 9 9 9 9 9 9 8 8 8
8 8 8 8 8 8 8 8 8 8 7 7 7 7 7 7 7 7 7 7 8 8 8 8 8 8 8 8 9 9 9 9 9 9 9 9 9 8 8 8 8 8 7
8 8 8 8 8 8 8 8 7 7 7 7 7 7 7 7 7 7 7 7 7 7 7 7 7 8 8 8 8 8 8 8 8 8 8 8 8 8 8 8 8 8 7
7 7 7 7 7 7 7 7 7 7 7 7 6 6 6 6 6 6 6 6 6 7 7 7 7 7 7 7 7 7 7 7 8 7 7 7 7 7 7 7 7 7 7
6 6 7 6 6 6 6 6 6 6 6 6 6 6 6 6 6 6 6 6 6 6 6 6 6 6 7 7 7 7 7 7 7 7 7 7 7 7 7 7 6 6 6
5 6 6 6 6 6 6 6 6 6 6 6 6 6 6 6 6 6 5 5 5 5 5 5 5 6 6 6 6 6 6 6 6 6 6 6 6 6 6 6 6 6 5
5 5 5 5 5 5 6 6 6 6 6 5 5 5 5 5 5 5 5 5 5 5 5 5 5 5 5 5 6 6 6 6 6 6 6 6 6 6 6 5 5 5 5
4 4 4 5 5 5 5 5 5 5 5 5 5 5 5 5 5 4 4 4 4 4 4 4 4 4 5 5 5 5 5 5 5 5 5 5 5 5 5 5 4 4 4
3 3 4 4 4 4 5 5 5 5 5 5 5 4 4 4 4 4 4 4 4 4 4 4 4 4 4 4 4 4 4 4 4 4 4 4 4 4 4 4 4 3 3
3 3 3 3 4 4 4 4 4 4 4 4 4 4 4 4 4 4 4 3 3 3 3 3 3 3 3 3 3 3 3 4 4 4 3 3 3 3 3 3 3 3 3
3 3 3 3 3 3 3 3 3 3 3 3 4 3 3 3 3 3 3 3 3 3 3 3 3 3 3 3 3 3 3 3 3 3 3 3 3 2 2 2 2 2 2
3 2 3 3 3 3 3 3 3 3 3 3 3 3 3 3 3 3 3 2 2 2 2 2 2 2 2 2 2 2 2 2 2 2 2 2 2 2 1 1 2 2 2
2 2 2 2 2 2 2 2 2 2 2 2 2 2 2 2 2 2 2 2 2 2 2 2 2 2 2 2 2 2 1 1 1 1 1 1 1 1 1 1 1 1 1
1 1 1 1 1 2 2 1 1 2 2 2 2 2 1 1 1 1 1 1 1 1 1 1 1 1 1 1 1 1 1 1 1 1 1 1 1 0 0 0 0 0 0
-0 0 0 0 0 1 1 1 1 1 1 1 1 1 1 1 1 1 1 1 1 1 1 1 1 1 1 1 1 0 0 0 -0 -0 -0 -0 -0 -0 -0 -0 -0 -0 -0
-1 -1 -1 -1 -1 -1 -0 0 0 0 0 1 0 0 0 0 0 0 0 0 0 0 0 0 -0 -0 -0 -0 -0 -0 -0 -0 -1 -1 -1 -1 -1 -1 -1 -1 -1 -1 -1
-1 -1 -1 -1 -2 -1 -1 -1 -1 -0 -0 -0 -0 -0 -0 -0 -0 -0 -0 -0 -0 -0 -0 -1 -1 -1 -1 -1 -1 -1 -1 -1 -1 -1 -1 -1 -1 -1 -1 -1 -1 -1 -1
-2 -2 -2 -2 -2 -2 -2 -2 -1 -1 -1 -1 -1 -1 -1 -1 -1 -1 -1 -1 -1 -1 -1 -1 -1 -1 -1 -1 -1 -1 -1 -1 -1 -2 -2 -2 -2 -2 -2 -2 -2 -2 -2
-3 -3 -3 -3 -3 -2 -2 -2 -2 -1 -1 -1 -1 -1 -1 -1 -1 -1 -1 -1 -1 -2 -2 -2 -2 -2 -2 -2 -2 -2 -2 -2 -2 -2 -2 -2 -2 -2 -2 -2 -2 -2 -3
Wind_Speed
7 6 6 5 5 5 6 6 6 5 4 3 3 3 4 4 4 3 5 6 7 8 7 5 4 4 5 5 5 4 5 3 3 3 2 2 2 2 1 2 3 3 4
5 4 5 5 6 6 6 6 6 6 5 5 4 3 3 3 4 3 4 5 6 7 6 5 5 4 4 5 5 4 4 2 3 3 3 1 1 2 1 1 2 3 3
8 6 6 6 6 6 7 7 6 6 5 5 3 3 2 1 2 3 3 3 5 5 5 5 5 5 5 5 5 5 6 4 2 2 4 4 3 1 1 1 1 2 2
7 7 7 6 7 8 7 6 6 6 5 6 6 6 5 3 3 3 2 2 3 4 5 5 5 5 5 5 5 4 4 6 4 2 1 2 3 3 1 1 1 1 1
7 7 7 7 7 7 7 6 7 6 5 6 7 7 5 3 2 2 3 3 2 2 3 4 4 4 4 4 5 4 4 4 4 3 2 2 2 2 3 2 1 1 0
5 5 5 4 4 5 6 6 7 7 6 6 6 6 6 5 3 3 4 3 2 1 2 3 3 3 3 4 4 4 5 4 4 3 3 3 3 3 3 2 2 1 1
5 4 4 4 4 5 6 6 8 7 7 7 7 6 6 6 5 4 4 4 3 1 2 2 2 2 2 3 3 4 4 4 4 4 3 3 2 2 3 3 2 1 1
4 4 5 5 5 6 7 8 8 8 7 7 7 6 6 5 4 4 4 4 3 3 3 3 3 2 3 3 3 3 3 3 4 3 3 2 2 2 3 3 3 2 1
4 4 4 5 6 6 7 9 9 8 8 8 7 6 6 6 5 4 3 3 3 3 4 3 3 3 3 3 3 3 3 3 3 3 2 2 2 2 2 3 4 4 3
3 3 3 4 4 5 6 6 7 8 8 8 7 6 6 6 5 5 4 4 3 3 4 4 3 3 2 2 3 3 3 3 2 2 3 2 1 1 1 2 2 3 4
2 3 2 2 3 3 5 5 6 7 7 8 7 7 6 6 6 5 5 4 3 4 4 4 4 4 3 3 3 3 3 3 2 1 2 2 1 1 1 1 2 2 2
1 2 2 2 3 4 5 5 6 7 7 7 7 7 6 6 6 6 6 5 4 4 4 4 4 3 3 3 3 3 3 3 3 2 2 1 1 1 1 2 2 2 2
0 1 1 2 3 4 5 5 6 6 6 7 7 7 6 6 6 6 6 5 5 4 4 4 4 3 3 3 3 3 3 3 3 2 2 1 2 2 1 2 2 2 2
1 1 2 2 3 4 5 6 6 6 7 7 7 7 7 7 6 6 6 6 5 5 4 4 4 4 3 3 3 3 3 2 2 1 1 1 2 3 3 2 3 3 2
2 2 2 2 3 4 4 5 5 6 7 7 7 7 6 6 6 6 5 5 5 5 5 4 4 3 3 3 3 4 3 3 2 1 1 1 1 2 2 2 2 3 3
4 3 3 3 3 5 5 5 6 6 6 7 6 6 6 6 6 6 6 5 5 4 4 4 4 3 2 3 4 4 4 3 2 1 0 0 0 0 0 1 2 3 3
5 4 3 3 3 4 5 6 6 6 6 6 6 6 6 6 6 6 6 6 5 5 4 4 4 4 3 4 4 4 3 3 3 2 1 1 1 0 0 0 1 2 4
5 4 4 3 3 3 4 4 5 6 6 6 5 6 6 6 6 6 6 6 5 5 5 4 4 4 4 4 4 4 3 3 2 2 2 2 2 2 1 1 1 2 3
4 4 4 3 3 3 4 5 5 6 6 6 5 6 7 7 6 6 6 5 5 5 4 4 4 4 4 4 4 4 3 2 2 2 2 2 2 3 3 1 2 2 3
1 1 2 2 2 2 4 5 6 6 6 5 5 5 6 6 6 6 5 4 5 4 4 3 3 4 4 4 4 3 3 2 2 1 2 3 3 4 3 2 2 3 4
1 2 3 2 2 2 4 5 5 5 5 4 4 5 5 5 5 5 4 5 4 4 4 3 2 3 4 4 4 4 3 3 3 2 2 3 4 4 4 4 3 5 4
2 2 3 2 2 2 4 4 4 3 4 5 4 4 4 4 4 5 4 4 5 4 4 3 2 1 2 3 4 4 4 3 3 3 3 3 5 5 5 4 5 5 4
3 2 3 3 2 2 3 4 2 4 5 4 4 3 3 3 4 4 4 4 4 4 4 3 3 2 1 2 4 4 4 4 3 3 4 5 5 4 3 4 5 4 2
3 3 4 3 2 2 2 2 3 4 5 5 3 3 3 3 3 3 3 4 4 4 4 4 4 3 2 2 2 3 3 3 2 2 3 4 3 3 3 3 3 2 3
3 3 3 3 2 2 2 2 3 4 5 4 3 3 3 3 2 2 2 3 3 5 6 5 5 4 4 4 5 3 3 3 3 2 1 1 1 2 2 2 2 2 2
3 3 3 3 2 2 2 2 2 3 5 3 3 2 2 2 2 2 1 0 1 2 4 5 5 4 5 6 5 5 5 5 4 2 2 3 3 4 4 3 3 3 3
Wind_Direction
219 201 195 190 180 176 172 172 173 174 161 161 164 171 188 180 175 175 174 174 170 166 159 159 158 163 171 175 167 157 147 137 133 110 85 30 43 87 115 138 144 148 153
207 197 191 182 180 183 183 176 178 177 175 177 178 175 178 186 178 168 161 169 165 165 165 161 167 168 166 164 168 154 146 138 144 137 129 105 14 353 24 119 158 159 141
198 197 193 193 188 188 188 184 181 178 175 168 150 128 100 90 130 156 167 157 158 159 159 159 162 167 171 172 171 169 158 158 159 144 146 149 186 219 336 344 155 156 153
197 194 192 193 195 197 191 185 178 170 167 162 156 154 153 173 188 177 164 147 140 150 154 151 156 164 166 169 172 167 159 155 163 148 106 140 147 145 157 318 341 137 157
192 192 193 195 197 193 186 184 174 166 163 164 167 165 158 167 173 150 141 144 130 137 142 145 149 154 155 163 164 156 154 159 163 163 145 116 94 104 140 179 262 342 291
194 195 191 185 190 186 178 174 169 170 166 164 166 165 158 153 153 151 157 156 150 143 125 124 133 138 142 154 161 158 158 159 157 159 154 155 150 159 149 166 183 206 257
180 180 177 180 187 184 179 175 172 175 172 167 167 167 162 157 166 168 167 160 155 146 158 121 124 131 130 136 133 143 154 155 155 163 172 166 170 160 154 151 160 176 251
184 188 190 186 189 186 182 178 176 177 175 174 173 166 159 159 168 174 168 168 166 160 149 128 129 119 118 122 124 139 144 143 149 156 161 164 180 165 162 160 156 160 253
193 194 193 188 187 185 186 184 180 177 175 172 168 163 162 161 164 160 155 160 152 140 133 132 129 117 108 117 124 128 132 131 140 146 150 172 190 175 171 162 165 169 200
191 191 193 193 193 189 181 173 173 174 172 171 171 168 165 167 159 151 150 154 150 139 140 138 134 125 120 120 123 124 118 114 124 143 141 144 163 171 172 177 182 178 188
199 195 193 187 175 163 161 163 166 165 165 165 163 162 165 161 157 157 157 152 150 146 146 149 145 139 140 138 134 137 133 131 128 130 152 165 155 145 153 171 182 180 177
215 197 170 149 155 163 165 167 167 167 170 166 156 153 151 152 154 156 155 151 154 155 150 145 142 143 146 147 142 142 143 146 150 154 152 173 161 151 165 175 190 192 189
56 165 157 167 177 175 173 173 173 170 164 155 152 151 154 154 160 161 158 156 161 159 151 146 153 156 155 149 146 148 152 154 161 164 167 197 175 184 192 189 201 198 193
204 186 188 192 188 183 177 175 177 170 160 156 156 162 166 162 161 161 161 161 164 165 159 155 160 161 157 151 144 138 137 134 135 142 160 190 199 207 205 203 203 187 176
233 212 201 204 193 182 179 178 175 172 164 160 163 169 163 153 150 151 156 155 154 159 157 152 151 148 152 159 151 146 140 135 123 105 116 181 204 210 213 208 202 191 188
235 227 221 211 199 190 185 181 178 177 167 165 167 162 153 148 149 148 145 143 143 145 146 151 151 151 163 161 162 156 153 148 147 154 201 293 245 183 238 220 219 216 209
228 222 222 213 212 208 194 187 183 171 164 165 164 160 155 152 157 153 146 149 153 150 151 158 157 163 173 172 166 156 151 154 170 182 197 248 278 336 197 283 289 250 245
229 224 218 210 209 201 193 182 169 161 160 160 162 161 157 155 156 152 153 157 158 161 164 169 169 169 182 177 174 166 157 160 176 189 197 208 233 237 219 217 256 266 260
234 226 217 204 185 182 176 161 159 159 157 160 164 166 160 156 156 157 161 163 162 164 167 173 174 177 189 186 180 172 164 162 193 214 209 207 222 251 248 221 246 280 288
238 181 157 135 144 167 156 152 157 156 163 167 165 160 158 159 164 170 170 165 166 168 167 171 181 185 193 198 191 187 176 185 215 239 241 236 237 249 246 225 221 255 272
73 106 119 125 142 146 138 149 155 167 171 157 149 148 153 156 164 167 167 163 162 160 166 171 190 196 202 205 204 206 196 194 203 223 244 248 248 250 256 256 237 250 270
59 85 100 92 93 123 133 147 165 162 140 137 141 149 154 159 155 153 160 164 162 162 172 171 190 218 214 211 207 209 216 213 207 223 234 240 245 250 257 261 263 271 285
55 66 93 80 54 77 126 146 160 137 131 132 140 150 147 147 154 158 166 171 171 172 182 182 192 213 214 212 219 216 218 227 237 232 233 241 244 252 256 266 272 274 263
51 68 85 85 58 50 92 136 138 135 133 136 140 142 140 142 150 161 174 177 181 183 188 192 199 207 215 218 215 211 220 230 248 250 243 250 248 258 267 274 269 254 244
33 66 89 91 62 50 60 77 120 128 130 135 140 141 148 155 153 157 181 188 203 200 193 198 197 195 213 229 226 217 215 216 225 233 246 247 246 253 260 261 259 254 250
54 63 67 68 53 56 53 50 92 121 126 130 138 150 152 153 155 152 127 68 192 213 217 219 218 228 232 233 236 237 239 237 231 240 228 234 237 242 246 251 262 260 253
Height
1467 1469 1471 1472 1474 1475 1477 1478 1480 1481 1483 1485 1486 1487 1489 1491 1494 1497 1499 1501 1503 1505 1508 1510 1512 1515 1518 1520 1522 1524 1526 1528 1530 1532 1534 1536 1538 1539 1540 1541 1542 1543 1544
1462 1464 1466 1468 1469 1470 1472 1474 1475 1477 1479 1481 1483 1485 1486 1488 1490 1493 1496 1498 1500 1502 1504 1507 1509 1511 1514 1517 1519 1521 1523 1525 1527 1529 1531 1533 1536 1536 1537 1539 1540 1541 1542
1457 1459 1461 1463 1465 1466 1468 1470 1472 1474 1476 1478 1480 1482 1484 1485 1486 1489 1492 1494 1497 1499 1501 1503 1506 1509 1511 1513 1516 1518 1519 1521 1524 1526 1528 1529 1531 1533 1535 1536 1537 1538 1539
1453 1455 1457 1459 1460 1462 1464 1466 1468 1470 1472 1474 1476 1478 1479 1481 1483 1485 1488 1491 1494 1496 1498 1501 1503 1506 1508 1510 1513 1515 1517 1519 1520 1523 1524 1527 1527 1529 1531 1533 1534 1536 1537
1449 1451 1453 1454 1456 1458 1460 1462 1465 1467 1469 1471 1473 1475 1477 1479 1482 1483 1485 1488 1491 1493 1496 1498 1501 1503 1505 1507 1510 1512 1514 1515 1517 1519 1521 1523 1525 1526 1527 1529 1531 1533 1534
1446 1448 1449 1451 1453 1454 1456 1459 1461 1463 1466 1468 1470 1472 1474 1477 1479 1481 1482 1485 1488 1490 1493 1495 1498 1500 1502 1504 1507 1509 1511 1513 1515 1516 1518 1520 1521 1523 1525 1526 1527 1528 1530
1443 1444 1446 1447 1449 1451 1452 1455 1457 1460 1463 1465 1467 1470 1472 1474 1477 1478 1480 1482 1484 1487 1489 1492 1495 1497 1499 1502 1504 1506 1509 1510 1512 1514 1515 1517 1519 1521 1522 1523 1524 1525 1526
1440 1441 1442 1444 1445 1447 1449 1451 1453 1456 1459 1462 1465 1467 1469 1472 1475 1476 1479 1480 1482 1484 1487 1489 1492 1495 1497 1499 1501 1503 1505 1507 1509 1511 1513 1514 1516 1517 1519 1520 1521 1522 1523
1437 1438 1439 1441 1442 1444 1446 1448 1451 1454 1457 1459 1462 1465 1467 1469 1472 1474 1477 1479 1481 1482 1484 1487 1489 1492 1494 1496 1498 1500 1502 1504 1506 1508 1509 1511 1512 1514 1515 1517 1518 1519 1519
1435 1436 1437 1438 1440 1441 1444 1446 1449 1451 1454 1457 1459 1462 1464 1466 1469 1472 1475 1477 1478 1480 1482 1484 1487 1489 1492 1494 1496 1497 1499 1501 1503 1505 1506 1508 1509 1510 1511 1513 1514 1515 1516
1434 1434 1435 1436 1437 1439 1442 1444 1446 1449 1451 1454 1457 1459 1462 1465 1467 1469 1472 1474 1476 1478 1480 1482 1484 1487 1489 1491 1493 1494 1496 1498 1500 1501 1503 1504 1505 1506 1508 1509 1510 1511 1512
1433 1433 1434 1435 1436 1438 1440 1442 1444 1446 1448 1451 1454 1456 1459 1462 1464 1467 1469 1472 1474 1476 1478 1480 1482 1484 1487 1488 1489 1491 1493 1495 1496 1498 1500 1501 1502 1503 1504 1505 1506 1507 1507
1432 1432 1432 1433 1434 1436 1437 1439 1441 1444 1446 1448 1451 1454 1457 1459 1462 1464 1467 1469 1472 1474 1476 1478 1480 1482 1484 1485 1487 1489 1491 1492 1493 1495 1496 1497 1498 1499 1500 1501 1502 1503 1503
1431 1431 1431 1432 1432 1434 1435 1437 1439 1442 1444 1446 1449 1452 1454 1457 1460 1462 1465 1467 1469 1472 1474 1476 1478 1480 1482 1483 1485 1487 1488 1489 1490 1492 1493 1494 1495 1495 1496 1497 1498 1499 1499
1429 1429 1429 1430 1431 1432 1434 1435 1437 1439 1442 1444 1447 1450 1452 1455 1457 1460 1462 1464 1467 1469 1471 1473 1475 1477 1479 1481 1482 1484 1485 1486 1487 1488 1490 1490 1491 1491 1492 1493 1493 1494 1494
1427 1428 1428 1429 1429 1430 1432 1433 1435 1437 1440 1442 1444 1447 1450 1452 1455 1457 1460 1462 1464 1467 1469 1471 1473 1475 1476 1478 1480 1481 1482 1483 1484 1485 1486 1487 1487 1488 1488 1489 1489 1490 1490
1425 1425 1425 1426 1427 1428 1429 1431 1433 1435 1437 1440 1442 1444 1447 1449 1452 1454 1457 1459 1462 1464 1466 1468 1470 1472 1474 1475 1476 1478 1479 1479 1480 1481 1482 1483 1483 1484 1485 1485 1485 1486 1486
1421 1422 1422 1423 1425 1426 1428 1429 1431 1433 1435 1437 1439 1442 1444 1446 1449 1451 1454 1456 1459 1462 1463 1465 1467 1469 1471 1472 1473 1474 1475 1476 1477 1478 1479 1479 1480 1480 1481 1481 1481 1481 1482
1419 1419 1420 1421 1422 1424 1425 1427 1429 1431 1433 1435 1437 1439 1441 1444 1446 1448 1451 1454 1456 1458 1460 1463 1464 1466 1467 1469 1470 1471 1471 1472 1473 1474 1475 1475 1476 1476 1477 1477 1477 1476 1477
1416 1417 1417 1419 1420 1421 1423 1424 1426 1428 1430 1432 1434 1437 1439 1441 1443 1446 1448 1451 1454 1455 1457 1459 1461 1463 1464 1465 1466 1467 1468 1468 1469 1470 1471 1472 1472 1473 1473 1473 1473 1472 1472
1415 1415 1416 1416 1418 1419 1420 1422 1423 1425 1428 1430 1432 1434 1436 1438 1441 1443 1446 1448 1450 1452 1454 1455 1457 1459 1460 1461 1463 1464 1464 1464 1465 1466 1466 1467 1468 1469 1469 1469 1469 1468 1468
1413 1414 1414 1415 1416 1418 1419 1420 1422 1424 1426 1428 1429 1432 1434 1436 1438 1440 1442 1445 1447 1448 1450 1451 1453 1455 1456 1457 1458 1460 1461 1461 1462 1462 1463 1463 1464 1464 1465 1464 1464 1464 1463
1413 1413 1414 1414 1415 1417 1418 1419 1420 1422 1424 1426 1427 1429 1431 1433 1435 1437 1439 1441 1443 1445 1446 1447 1449 1450 1452 1453 1455 1456 1457 1457 1458 1458 1459 1459 1460 1460 1460 1459 1459 1459 1458
1413 1413 1414 1414 1415 1417 1418 1419 1419 1421 1422 1424 1426 1427 1429 1431 1433 1435 1437 1438 1439 1441 1442 1443 1445 1446 1447 1449 1450 1451 1452 1453 1454 1454 1454 1455 1455 1455 1455 1454 1454 1454 1454
1413 1414 1414 1414 1415 1416 1418 1418 1419 1420 1421 1422 1424 1425 1427 1428 1430 1432 1433 1435 1436 1437 1439 1440 1441 1442 1443 1445 1446 1447 1448 1448 1449 1449 1449 1449 1449 1449 1449 1449 1449 1449 1449
1413 1414 1414 1415 1415 1416 1417 1418 1419 1419 1420 1421 1422 1423 1425 1426 1427 1428 1430 1432 1433 1435 1436 1437 1438 1439 1440 1441 1442 1443 1444 1444 1445 1445 1444 1444 1444 1444 1444 1444 1444 1444 1443